Regional Weather Roundup
Issued by NWS Newport/Morehead, NC

Home | Current Version | Previous Version | Text Only | Print | Product List | Glossary On
Versions: 1 2 3 4 5 6 7 8 9 10 11 12 13 14 15 16 17 18 19 20 21 22 23 24 25 26 27 28 29 30 31 32 33 34 35 36 37 38 39 40 41 42 43 44 45 46 47 48 49 50
000
ASUS42 KMHX 300025
RWRMHX
WEATHER ROUNDUP FOR EASTERN NORTH CAROLINA
NATIONAL WEATHER SERVICE NEWPORT/MOREHEAD CITY NC
800 PM EDT WED MAR 29 2017

NOTE: "FAIR" INDICATES FEW OR NO CLOUDS BELOW 12,000 FEET
WITH NO SIGNIFICANT WEATHER AND/OR OBSTRUCTIONS TO VISIBILITY

NCZ015>017-031-032-045>047-102-103-300100-
NORTH COAST

CITY           SKY/WX    TMP DP  RH WIND       PRES   REMARKS
EDENTON        CLEAR     53  48  84 E8        30.15
ELIZABETH CITY CLEAR     50  45  83 NE9       30.14R
KITTY HAWK     NOT AVBL
MANTEO         CLEAR     48  46  93 E6        30.15R

$$

NCZ045>047-081-094-103-104-300100-
CENTRAL COAST

CITY           SKY/WX    TMP DP  RH WIND       PRES   REMARKS
FRISCO         CLEAR     52  47  83 NE8       30.13R

$$

NCZ095-097-098-100-101-300100-
SOUTHERN COAST

CITY           SKY/WX    TMP DP  RH WIND       PRES   REMARKS
BEAUFORT       CLEAR     58  53  84 NE7       30.10R
CEDAR ISLAND   NOT AVBL
JACKSONVILLE   CLEAR     63  55  75 E7        30.09R
PINEY ISLAND   CLEAR    N/A N/A N/A E13       30.11R
WILMINGTON     CLEAR     61  55  81 E6        30.09R


$$

NCZ011>013-027>030-043-044-078>080-089-090>093-098-300100-
COASTAL PLAIN

CITY           SKY/WX    TMP DP  RH WIND       PRES   REMARKS
AHOSKIE          N/A     59  51  76 CALM      30.13
CLINTON        CLEAR     67  56  68 E3        30.08R
ELIZABETHTOWN  PTCLDY    70  56  61 E5        30.07R
GOLDSBORO      CLEAR     63  57  80 E3        30.07R
GREENVILLE     MOCLDY    63  54  72 E8        30.12R
HAVELOCK       CLEAR     58  51  78 E8        30.11R
KENANSVILLE    CLEAR     63  55  77 CALM      30.09R
KINSTON        CLEAR     61  54  77 CALM      30.10R
NEW BERN       CLEAR     57  52  83 E6        30.12R
RICHLANDS      CLEAR     63  55  75 E6        30.10R
ROCKY MOUNT    CLOUDY    64  55  72 E3        30.09R
WASHINGTON     CLEAR     59  52  78 E7        30.12R
WHITEVILLE     PTCLDY    68  58  70 E6        30.06R

$$

AMZ130-135-150-152-154-156-158-170-250-252-270-ANZ085-086-088-633-658-670-300100-
MARINE OBSERVATIONS

STATION/POSITION TIME  TEMP    WIND        PRES    WAVE   SWELL
                       AIR SEA DIR/SP/G            HT/PER HT/PER
                 (UTC) (F)     (DEG/KT/KT) (MB)    (FT/S) (FT/S)
CHESAPEAKE LIGHT NOT AVBL
64 E VA BEACH    2350   50 50   50/  8/ 10 1020.1    6/ 7   5/ 7
DUCK             0000   48 51   50/  8/ 10 1020.3
2 E DUCK         0000      51                N/A     4/10   2/11
OREGON INLET     0000   49 57   40/  7/ 10 1020.6
13E OREGON INLT  2348      50                N/A     4/ 6   3/ 6
HATTERAS CG      0000   53 62   40/ 10/ 13 1019.6
DIAMOND BUOY     2350   58 74   30/ 19/ 25 1019.0    7/10   3/10
CAPE LOOKOUT     0000   60      50/ 17/ 20 1018.8
BEAUFORT LAB     0000   58 63   60/  6/ 11 1018.4
30 SE NEW RVR IN 0008   62      80/ 16/ 21 1018.7
30 SE NEW RVR IN 2343      64                N/A     6/11   2/11
27 SE WRIGHTSVLE 0008   65 74   90/ 17/ 23 1017.5
5 SE WRIGHTSVLE  0008   60 59   90/ 12/ 17 1018.5
225 S CAPE HAT   2350   71 72   40/ 16/ 17 1016.1    6/11   5/11
41 SE CHARLESTON 2350   71 69   80/  8/ 10 1015.9    4/10   3/10

$$




USA.gov is the U.S. government's official web portal to all federal, state and local government web resources and services.